DELTA 1 DEB, 10749

Orbit data source: Space-Track

DELTA 1 DEB, 10749 is space debris in SSO originally from a launch on Thu, 29 Jul 1976 UTC launched from the Air Force Western Test Range (AFWTR). Debris objects in space refer to the collection of defunct objects orbiting the Earth. Examples of debris include non-operational satellites, rocket bodies, and fragments generated from explosions, collisions, or faulty payload assembly.

Loading next visibility...
Identifier
10749, 1976-077AW
Orbit
SSO
Country
Flag of USUS
Related business
Manufacturer
Unknown
Mission
Spacecraft
Bus & Motor
Unknown
Mass
Unknown
Launch date (UTC)
1976-07-29 (49 years ago)
Launch vehicle
Unknown
Launch site
Air Force Western Test Range (AFWTR)
Object type
Payload
Rocket body
Debris
Shape & HBR
Unknown shape, 0.2 m
Radar Cross Section
Medium (>0.1 m² and <1 m²)

Expand to show TLE details & history
Last TLE update: 19 hours ago

TLE from 19 hours ago
0 DELTA 1 DEB
1 10749U 76077AW  25291.19185719 -.00000056  00000-0 -10469-3 0  9994
2 10749 102.3577  19.4579 0090868  74.1723 342.2630 12.23532794198992
Epoch: 2025-10-18T04:36Z
TLE epoch observation values (Epoch: 2025-10-18T04:36:16.461Z)
Latitude
54.28064°
Longitude
-94.18635°
Altitude
1,517.087 km
Speed
7.142 km/s
True Right ascension
00h 07m 14s
True Declination
54° 07' 59"
Sunlit
Object was in full shadow at epoch
Visualization orbit readout
Latitude
Unknown
Longitude
Unknown
Altitude
Unknown
Speed
Unknown
Apparent Right ascension
Unknown
Apparent Declination
Unknown
Sunlit
N/A
Visualization observer readout
Local Sidereal Time
18:13:41
Azimuth
Unknown
Elevation
Unknown
Doppler factor
Unknown
Orbital elements
Apogee altitude
1,647.075 km
Perigee altitude
1,502.542 km
Semi-major axis
7,952.946 km
Eccentricity
0.00909
Inclination
102.3577°
RAAN
19.4579°
Arg. of periapsis
74.1723°
True anomaly
341.94231°
Mean anomaly
342.263°
Eccentric anomaly
342.10301°
Mean motion
3.06021 °/min
Orbital period
117.64 mins
BSTAR
-0.00010469
Loading maneuver chart data...
Computing Atmospheric mass density...
Loading historical data...
Loading historical data...
Loading historical data...
Loading historical data...
Loading historical data...
Loading historical data...
Loading historical data...

Documentation

Showing up to 5 results
|